Flag for Guinea Weather past 2 weeks in Boké, Guinea

Now
79 °F

Clear.


Feels Like: 82 °F
Forecast: 72 / 99 °F
Wind: 5 mph from Northwest

Location: Conakry / Gbessia


UV Index: 10 (Very high)

Visibility: 10 mi


Pressure: 29.83 "Hg

Humidity: 84%

Dew point: 73 °F

Location of BokéLocation

Historic Weather in Boké

°F

Boké temperature yesterday

Maximum temperature yesterday: 90 °F (at 1:00 PM)
Minimum temperature yesterday: 77 °F (at 1:00 AM)
Average temperature yesterday: 83 °F

Past Weeks' High & Low Weather Summary

 TemperatureHumidityPressure
High93 °F (Apr 10, 2:00 PM)94% (Apr 4, 5:00 AM)29.98 "Hg (Apr 4, 5:00 AM)
Low73 °F (Apr 8, 7:00 AM)20% (Apr 15, 1:00 PM)29.74 "Hg (Apr 17, 5:00 PM)
Average82 °F68%29.86 "Hg
* Reported Apr 4 1:00 AM — Apr 19 1:00 AM, Boké, Weather by CustomWeather, © 2014

Note: Actual official high and low records may vary slightly from our data, if they occured in-between our weather recording intervals... More about our weather records

Advertising

Historic Weather Conditions — Data for Previous 24 hours

 ConditionsComfort  
Time TempWeatherWind HumidityBarometerVisibility
1:00 AM
Apr 19
79 °FClear.5 mph84%29.83 "Hg10 mi
12:00 AM79 °FClear.5 mph89%29.86 "Hg10 mi
11:00 PM
Apr 18
81 °FClear.7 mph79%29.86 "Hg10 mi
10:00 PM81 °FClear.9 mph74%29.86 "Hg10 mi
9:00 PM81 °FClear.9 mph74%29.83 "Hg10 mi
7:00 PM82 °FSunny.5 mph70%29.80 "Hg10 mi
6:00 PM84 °FSunny.7 mph66%29.77 "Hg10 mi
5:00 PM88 °FSunny.7 mph59%29.77 "Hg10 mi
4:00 PM88 °FSunny.7 mph55%29.77 "Hg10 mi
3:00 PM90 °FSunny.9 mph52%29.77 "Hg10 mi
2:00 PM90 °FSmoke.9 mph52%29.80 "HgN/A
1:00 PM90 °FSunny.14 mph52%29.83 "Hg10 mi
12:00 PM88 °FSunny.14 mph55%29.86 "Hg10 mi
11:00 AM86 °FSunny.14 mph62%29.89 "Hg10 mi
10:00 AM84 °FSunny.12 mph66%29.89 "Hg10 mi
9:00 AM82 °FHaze.9 mph70%29.86 "Hg3 mi
8:00 AM79 °FHaze.2 mph79%29.86 "Hg3 mi
7:00 AM79 °FSunny.2 mph79%29.83 "Hg10 mi
6:00 AM77 °FClear.2 mph83%29.80 "Hg10 mi
4:00 AM77 °FClear.5 mph83%29.80 "Hg10 mi
2:00 AM79 °FClear.2 mph79%29.80 "Hg10 mi
Weather by CustomWeather, © 2014

See weather overview